Location: ????????
(55.3155°N, 39.2900°E)
Time: 18:06:34
(UTC+00:00)

ACS3 Solar Sail - Pass Details

Date: 15 November 2025
Orbit: 889 x 1003 km, 97.3° (Epoch: 06 December)

Event Time Altitude Azimuth Distance (km) Brightness Sun altitude
Rises 00:23:33 0° 15° (NNE) 3,551 5.2 -37.9°
Reaches altitude 10° 00:26:01 10° 21° (NNE) 2,620 4.5 -37.6°
Enters shadow 00:29:53 38° 47° (NE) 1,380 2.9 -37.1°
